Weather History for Clemson, SC

Change the Weather History Date:

Friday, June 7, 2013

  Actual Average Record
Temperature  
Mean Temperature 76 °F -  
Max Temperature 86 °F 84 °F 99 °F (1933)
Min Temperature 68 °F 61 °F 49 °F (1976)
Cooling Degree Days 11    
Growing Degree Days 26 (Base 50)    
Moisture  
Dew Point 66 °F    
Average Humidity 81    
Maximum Humidity 90    
Minimum Humidity 58    
Precipitation  
Precipitation 1.32 in - - ()
Sea Level Pressure  
Sea Level Pressure 29.76 in    
Wind  
Wind Speed 3 mph (WSW)    
Max Wind Speed 25 mph    
Max Gust Speed 36 mph    
Visibility 8 miles    
Events Rain , Thunderstorm    
Averages and records for this station are not official NWS values.
T = Trace of Precipitation, MM = Missing Value Source: NWS Daily Summary

Daily Weather History Graph

Daily Weather History Graph

Search for Another Location

Airport:

Trip Planner

Search our weather history database for the weather conditions in past years. The results will help you decide how hot, cold, wet, or windy it might be!

Date:

Astronomy

Jun. 07, 2013 Rise Set
Actual Time 6:18 AM EDT 8:42 PM EDT
Civil Twilight 5:48 AM EDT 9:12 PM EDT
Nautical Twilight 5:12 AM EDT 9:48 PM EDT
Astronomical Twilight 4:33 AM EDT 10:27 PM EDT
Moon 5:37 AM EDT (6/7) 7:58 PM EDT (6/7)
Length of Visible Light 15h 23m
Length of Day
14h 24m
Waning Crescent, 1% of the Moon is Illuminated
Jun 7
Waning Crescent
Jun 8
New
Jun 16
First Quarter
Jun 23
Full
Jun 30
Last Quarter

Hourly Weather History & Observations

Time (EDT) Temp. Heat Index Dew Point Humidity Pressure Visibility Wind Dir Wind Speed Gust Speed Precip Events Conditions
12:20 AM 69.8 °F - 66.2 °F 88% 29.82 in 6.0 mi Calm Calm - 0.03 in Rain Rain
12:44 AM 69.8 °F - 66.2 °F 88% 29.81 in 8.0 mi Calm Calm - 0.05 in Rain Light Rain
12:54 AM 69.1 °F - 66.0 °F 90% 29.78 in 8.0 mi Calm Calm - 0.06 in Rain Light Rain
1:54 AM 69.1 °F - 64.9 °F 87% 29.76 in 8.0 mi NNE 3.5 mph - 0.04 in Rain Light Rain
2:54 AM 69.1 °F - 64.9 °F 87% 29.73 in 9.0 mi North 4.6 mph - 0.05 in Rain Light Rain
3:54 AM 68.0 °F - 64.9 °F 90% 29.71 in 8.0 mi Calm Calm - 0.04 in Rain Light Rain
4:54 AM 69.1 °F - 64.9 °F 87% 29.68 in 10.0 mi NNW 3.5 mph - 0.03 in Rain Light Rain
5:25 AM 69.8 °F - 64.4 °F 83% 29.72 in 10.0 mi Calm Calm - 0.01 in Rain Light Rain
5:54 AM 69.1 °F - 64.9 °F 87% 29.69 in 10.0 mi Calm Calm - 0.02 in Rain Light Rain
6:54 AM 69.1 °F - 64.9 °F 87% 29.69 in 9.0 mi Calm Calm - 0.02 in Rain Light Rain
7:54 AM 69.1 °F - 66.0 °F 90% 29.69 in 10.0 mi Calm Calm - 0.02 in Rain Light Rain
8:54 AM 70.0 °F - 66.9 °F 90% 29.71 in 10.0 mi West 4.6 mph - 0.01 in Rain Light Rain
9:14 AM 71.6 °F - 66.2 °F 83% 29.74 in 10.0 mi West 5.8 mph - 0.00 in Rain Light Rain
9:28 AM 71.6 °F - 66.2 °F 83% 29.74 in 10.0 mi Calm Calm - 0.00 in   Overcast
9:54 AM 71.1 °F - 66.9 °F 87% 29.72 in 10.0 mi WSW 3.5 mph - 0.00 in   Mostly Cloudy
10:54 AM 73.9 °F - 68.0 °F 82% 29.72 in 10.0 mi Calm Calm - N/A   Partly Cloudy
11:13 AM 71.6 °F - 68.0 °F 88% 29.75 in 10.0 mi Variable 4.6 mph - N/A   Mostly Cloudy
11:54 AM 75.9 °F - 68.0 °F 76% 29.73 in 10.0 mi WSW 6.9 mph - N/A   Mostly Cloudy
12:08 PM 75.2 °F - 68.0 °F 78% 29.76 in 10.0 mi Variable 5.8 mph - N/A   Scattered Clouds
12:54 PM 79.0 °F - 69.1 °F 72% 29.72 in 10.0 mi Variable 4.6 mph - N/A   Partly Cloudy
1:54 PM 82.9 °F 87.0 °F 70.0 °F 65% 29.71 in 10.0 mi South 8.1 mph - N/A   Mostly Cloudy
2:54 PM 84.0 °F 87.8 °F 69.1 °F 61% 29.70 in 10.0 mi Variable 5.8 mph - N/A   Mostly Cloudy
3:30 PM 84.2 °F 88.4 °F 69.8 °F 62% 29.72 in 10.0 mi Variable 6.9 mph - N/A Thunderstorm Scattered Clouds
3:54 PM 79.0 °F - 63.0 °F 58% 29.72 in 10.0 mi NW 19.6 mph 26.5 mph N/A Thunderstorm Thunderstorm
4:05 PM 69.8 °F - 62.6 °F 78% 29.75 in 4.0 mi North 12.7 mph 28.8 mph 0.03 in Rain , Thunderstorm Heavy Thunderstorms and Rain
4:22 PM 71.6 °F - 62.6 °F 73% 29.75 in 10.0 mi North 8.1 mph - 0.03 in   Overcast
4:54 PM 75.9 °F - 64.9 °F 69% 29.71 in 10.0 mi SE 4.6 mph - 0.03 in   Partly Cloudy
5:54 PM 78.1 °F - 66.0 °F 66% 29.72 in 10.0 mi SSE 5.8 mph - N/A   Clear
6:54 PM 79.0 °F - 68.0 °F 69% 29.73 in 10.0 mi Calm Calm - N/A   Clear
7:09 PM 77.0 °F - 68.0 °F 74% 29.77 in 10.0 mi SW 10.4 mph 20.7 mph N/A Thunderstorm Mostly Cloudy
7:26 PM 71.6 °F - 66.2 °F 83% 29.82 in 1.2 mi SW 12.7 mph 21.9 mph 0.24 in Rain , Thunderstorm Heavy Thunderstorms and Rain
7:28 PM 71.6 °F - 66.2 °F 83% 29.82 in 0.8 mi WSW 25.3 mph 35.7 mph 0.50 in Rain , Thunderstorm Heavy Rain
7:40 PM 69.8 °F - 66.2 °F 88% 29.81 in 1.0 mi Variable 5.8 mph - 0.95 in Rain , Thunderstorm Heavy Thunderstorms and Rain
7:48 PM 71.6 °F - 66.2 °F 83% 29.82 in 3.0 mi Variable 4.6 mph - 0.97 in Rain , Thunderstorm Thunderstorms and Rain
7:54 PM 70.0 °F - 66.0 °F 87% 29.79 in 5.0 mi SW 4.6 mph - 0.98 in Rain , Thunderstorm Thunderstorms and Rain
8:06 PM 71.6 °F - 66.2 °F 83% 29.80 in 8.0 mi WNW 3.5 mph - 0.01 in Rain Light Rain
8:54 PM 70.0 °F - 66.0 °F 87% 29.78 in 10.0 mi WSW 4.6 mph - 0.02 in Rain Light Rain
9:54 PM 69.1 °F - 66.0 °F 90% 29.81 in 5.0 mi Calm Calm - 0.00 in   Clear
10:21 PM 69.8 °F - 66.2 °F 88% 29.84 in 3.0 mi Calm Calm - N/A   Scattered Clouds
10:54 PM 69.1 °F - 66.0 °F 90% 29.83 in 9.0 mi Calm Calm - 0.00 in   Overcast
11:40 PM 69.8 °F - 64.4 °F 83% 29.87 in 10.0 mi South 3.5 mph - N/A   Overcast
11:54 PM 69.1 °F - 66.0 °F 90% 29.85 in 8.0 mi Calm Calm - N/A   Overcast